Location: Kosice
(0.0000°N, 21.2500°E)
Time: 19:03:41
(UTC+01:00)

Iridium 4 Rocket - Pass Details

Date: 24 January 2021
Orbit: 583 x 906 km, 86.9° (Epoch: 01 March)

Event Time Altitude Azimuth Distance (km) Brightness Sun altitude
Rises 18:39:30 0° 358° (N) 3,159 6.5 -12.3°
Reaches altitude 10° 18:41:54 10° 356° (N) 2,187 5.7 -12.9°
Maximum altitude 18:46:43 75° 271° (W) 694 3.4 -14.0°
Drops below altitude 10° 18:51:09 10° 186° (S) 2,014 6.0 -15.1°
Sets 18:53:17 0° 184° (S) 2,888 6.8 -15.6°
